Weather History for Maxwell AFB, AL

Change the Weather History Date:

Tuesday, November 13, 2012

  Actual Average Record
Temperature  
Mean Temperature 48 °F -  
Max Temperature 59 °F 66 °F 78 °F (2000)
Min Temperature 38 °F 46 °F 31 °F (2013)
Degree Days  
Heating Degree Days 16    
Moisture  
Dew Point 30 °F    
Average Humidity 54    
Maximum Humidity 83    
Minimum Humidity 28    
Precipitation  
Precipitation 0.00 in - - ()
Sea Level Pressure  
Sea Level Pressure 30.33 in    
Wind  
Wind Speed 10 mph (North)    
Max Wind Speed 14 mph    
Max Gust Speed 20 mph    
Visibility 10 miles    
Events      
Averages and records for this station are not official NWS values.
T = Trace of Precipitation, MM = Missing Value Source: NWS Daily Summary

Daily Weather History Graph

Daily Weather History Graph

Search for Another Location

Airport:

Trip Planner

Search our weather history database for the weather conditions in past years. The results will help you decide how hot, cold, wet, or windy it might be!

Date:

Astronomy

Nov. 13, 2012 Rise Set
Actual Time 6:13 AM CST 4:45 PM CST
Civil Twilight 5:47 AM CST 5:11 PM CST
Nautical Twilight 5:17 AM CST 5:41 PM CST
Astronomical Twilight 4:48 AM CST 6:10 PM CST
Moon 5:50 AM CST (11/13) 4:40 PM CST (11/13)
Length of Visible Light 11h 24m
Length of Day
10h 32m
Waning Crescent, 0% of the Moon is Illuminated
Nov 13
Waning Crescent
Nov 13
New
Nov 20
First Quarter
Nov 28
Full
Dec 6
Last Quarter

Hourly Weather History & Observations

Time (CST) Temp. Windchill Dew Point Humidity Pressure Visibility Wind Dir Wind Speed Gust Speed Precip Events Conditions
12:55 AM 43.7 °F 39.1 °F 37.9 °F 80% 30.34 in 10.0 mi North 8.1 mph - N/A   Clear
1:55 AM 42.1 °F 36.1 °F 37.2 °F 83% 30.34 in 10.0 mi North 10.4 mph - N/A   Clear
2:55 AM 41.4 °F - 35.1 °F 78% 30.34 in 10.0 mi North - - N/A   Clear
3:55 AM 40.5 °F 34.1 °F 33.4 °F 76% 30.35 in 10.0 mi North 10.4 mph - N/A   Clear
4:55 AM 39.9 °F 32.5 °F 32.0 °F 73% 30.36 in 10.0 mi North 12.7 mph - N/A   Clear
5:55 AM 38.7 °F 31.8 °F 30.0 °F 71% 30.38 in 10.0 mi North 10.4 mph - N/A   Clear
6:55 AM 39.4 °F 32.7 °F 29.1 °F 67% 30.39 in 10.0 mi North 10.4 mph - N/A   Clear
7:55 AM 42.8 °F 36.6 °F 28.2 °F 56% 30.40 in 10.0 mi North 11.5 mph 18.4 mph N/A   Clear
8:55 AM 46.4 °F 40.4 °F 27.7 °F 48% 30.40 in 10.0 mi North 13.8 mph - N/A   Clear
9:55 AM 49.3 °F - 26.6 °F 41% 30.40 in 10.0 mi NNE 13.8 mph - N/A   Clear
10:55 AM 52.5 °F - 26.6 °F 37% 30.37 in 10.0 mi North 9.2 mph - N/A   Clear
11:55 AM 56.3 °F - 26.2 °F 32% 30.33 in 10.0 mi NNW 10.4 mph - N/A   Clear
12:55 PM 59.2 °F - 27.5 °F 30% 30.30 in 10.0 mi NNW 12.7 mph 19.6 mph N/A   Clear
1:55 PM 59.4 °F - 27.5 °F 30% 30.28 in 10.0 mi NNW 11.5 mph - N/A   Clear
2:55 PM 59.7 °F - 26.8 °F 28% 30.26 in 10.0 mi North 12.7 mph - N/A   Clear
3:55 PM 57.9 °F - 27.5 °F 31% 30.28 in 10.0 mi North 8.1 mph - N/A   Clear
4:55 PM 51.8 °F - 28.9 °F 41% 30.28 in 10.0 mi NNW 6.9 mph - N/A   Clear
5:55 PM 49.8 °F - 29.3 °F 45% 30.29 in 10.0 mi Variable 6.9 mph - N/A   Clear
6:55 PM 47.8 °F - 29.1 °F 48% 30.31 in 10.0 mi NNW 6.9 mph - N/A   Clear
7:55 PM 45.9 °F 42.9 °F 30.2 °F 54% 30.31 in 10.0 mi North 5.8 mph - N/A   Clear
8:55 PM 45.0 °F 43.5 °F 31.1 °F 58% 30.32 in 10.0 mi North 3.5 mph - N/A   Clear
9:55 PM 43.0 °F 40.3 °F 31.3 °F 63% 30.30 in 10.0 mi North 4.6 mph - N/A   Clear
10:55 PM 41.7 °F - 31.8 °F 68% 30.30 in 10.0 mi North - - N/A   Clear
11:55 PM 41.5 °F 37.8 °F 31.6 °F 68% 30.29 in 10.0 mi NNE 5.8 mph - N/A   Clear